Skip to main content

Madeira, Calheta

ID 1210990 · 32.8138, -17.2632 map

Latest reading · 2026-05-09 19:00 (Europe/Lisbon)

Temperature
17.6 °C
Humidity
71 %
Pressure
1,012.4 hPa
Precipitation
0.0 mm
Radiation
1,499 W/m²
Wind speed
14.4 km/h
Wind direction
W · West

24-hour history

Time (Europe/Lisbon) Temp Humidity Pressure Rain Wind Dir
2026-05-09 19:00 17.6 °C 71 % 1,012.4 0.0 mm 14.4 km/h W
2026-05-09 18:00 17.4 °C 75 % 1,012.1 0.0 mm 14.4 km/h W
2026-05-09 17:00 18.1 °C 73 % 1,011.8 0.0 mm 17.6 km/h SW
2026-05-09 16:00 17.4 °C 76 % 1,011.9 0.0 mm 18.4 km/h SW
2026-05-09 15:00 17.0 °C 76 % 1,011.8 0.0 mm 14.4 km/h SW
2026-05-09 14:00 17.5 °C 71 % 1,011.7 0.0 mm 20.5 km/h W
2026-05-09 13:00 16.6 °C 75 % 1,011.7 0.0 mm 16.9 km/h W
2026-05-09 12:00 15.2 °C 78 % 1,011.8 0.0 mm 14.4 km/h W
2026-05-09 11:00 14.7 °C 82 % 1,011.5 0.0 mm 16.9 km/h W
2026-05-09 10:00 14.0 °C 84 % 1,011.1 0.0 mm 17.3 km/h W
2026-05-09 09:00 13.5 °C 90 % 1,010.4 0.0 mm 18.7 km/h NW
2026-05-09 08:00 13.4 °C 90 % 1,009.8 0.0 mm 18.0 km/h NW
2026-05-09 07:00 13.5 °C 87 % 1,009.4 0.0 mm 16.2 km/h W
2026-05-09 06:00 13.7 °C 89 % 1,009.2 0.0 mm 22.7 km/h NW
2026-05-09 05:00 13.8 °C 88 % 1,009.2 0.0 mm 18.7 km/h W
2026-05-09 04:00 13.7 °C 89 % 1,009.3 0.0 mm 27.4 km/h NW
2026-05-09 03:00 13.9 °C 88 % 1,009.4 0.0 mm 20.9 km/h NW
2026-05-09 02:00 13.8 °C 90 % 1,009.6 0.0 mm 24.8 km/h NW
2026-05-09 01:00 14.0 °C 90 % 1,009.4 0.0 mm 22.3 km/h N
2026-05-09 00:00 14.4 °C 87 % 1,009.2 0.0 mm 14.8 km/h W
2026-05-08 23:00 14.3 °C 88 % 1,008.8 0.0 mm 11.9 km/h S
2026-05-08 22:00 14.4 °C 87 % 1,008.5 0.0 mm 11.5 km/h SW
2026-05-08 21:00 14.7 °C 87 % 1,008.3 0.0 mm 25.9 km/h NW
2026-05-08 20:00 14.3 °C 93 % 1,008.0 0.0 mm 23.0 km/h W